Location: Niverville
(49.6028°N, 97.0419°W)
Time: 16:33:29
(UTC-05:00)

Amateur Radio Satellites - All Passes

Search period start: 22 July 2014 16:03
Search period end: 23 July 2014 16:03
Location: Niverville, 49.6028°N, 97.0419°W

Satellite Date Start Highest point End Downlink Frequencies (MHz)
Time Altitude Azimuth
AO-27 22 Jul 16:03:42 16:07:29 20° 270° (W) 16:11:17 436.795 MHz FM
KITSAT 1 22 Jul 16:07:32 16:15:30 56° 42° (NE) 16:23:24 435.175 FM
AO-7 22 Jul 16:07:37 16:15:50 64° 63° (ENE) 16:24:05 29.400 - 29.500 MHz
Uribyol 2 22 Jul 16:08:10 16:11:38 18° 271° (W) 16:15:07 436.500 FM
RS-15 22 Jul 16:10:27 16:21:33 83° 126° (SE) 16:32:30 29.354 - 29.394 USB, Beacon 29.352 USB
AO-Echo 22 Jul 16:27:59 16:30:32 13° 275° (W) 16:33:06 ?
UOSAT-12 22 Jul 16:28:09 16:31:44 23° 114° (ESE) 16:35:22 437.025 FM, 437.400 FM
JAS-1B 22 Jul 16:30:52 16:38:53 41° 269° (W) 16:47:55 435.800 - 435.900 CW/SSB
Uosat F 22 Jul 16:36:34 16:41:37 81° 73° (ENE) 16:46:42 435.120 FM
OPAL 22 Jul 16:58:45 17:03:12 31° 98° (E) 17:07:40 ?
TMSAT-1 22 Jul 17:05:44 17:09:29 19° 271° (W) 17:13:15 436.925 FM
SO-50 22 Jul 17:07:41 17:11:40 30° 326° (NW) 17:15:45 436.795 FM
Hamsat 22 Jul 17:17:04 17:19:47 17° 60° (ENE) 17:22:31 145.90 MHz
Saudisat 1A 22 Jul 17:21:03 17:25:06 33° 37° (NE) 17:29:07 436.775 MHz
JAS-2 22 Jul 17:24:59 17:31:41 33° 58° (ENE) 17:38:03 435.800 - 435.900 CW/SSB, 435.910 FM
AO-7 22 Jul 18:01:34 18:09:06 36° 264° (W) 18:16:41 29.400 - 29.500 MHz
KITSAT 1 22 Jul 18:03:13 18:10:52 48° 245° (WSW) 18:18:28 435.175 FM
UOSAT-12 22 Jul 18:06:53 18:11:30 64° 314° (NW) 18:16:12 437.025 FM, 437.400 FM
Uosat F 22 Jul 18:18:03 18:21:03 16° 272° (W) 18:24:04 435.120 FM
RS-15 22 Jul 18:24:34 18:35:01 46° 334° (NNW) 18:45:29 29.354 - 29.394 USB, Beacon 29.352 USB
OPAL 22 Jul 18:37:30 18:42:13 43° 296° (WNW) 18:46:59 ?
Hamsat 22 Jul 18:51:13 18:55:20 61° 259° (W) 18:59:31 145.90 MHz
SO-50 22 Jul 18:51:18 18:53:42 14° 350° (N) 18:56:07 436.795 FM
HO-68 22 Jul 18:55:00 18:58:17 14° 39° (NE) 19:01:34 435.675 MHz FM
Saudisat 1A 22 Jul 19:00:36 19:04:50 46° 238° (WSW) 19:09:02 436.775 MHz
JAS-2 22 Jul 19:08:21 19:16:12 72° 257° (WSW) 19:23:43 435.800 - 435.900 CW/SSB, 435.910 FM
STRAND 1 22 Jul 19:10:50 19:14:18 18° 89° (E) 19:17:45 ?
SO-67 22 Jul 19:22:44 19:26:05 48° 72° (ENE) 19:29:27 435.3500 MHz FM
UOSAT-12 22 Jul 19:49:06 19:52:33 20° 336° (NNW) 19:56:01 437.025 FM, 437.400 FM
SO-50 22 Jul 20:33:27 20:36:10 15° 15° (NNE) 20:38:54 436.795 FM
HO-68 22 Jul 20:37:34 20:44:21 48° 62° (ENE) 20:51:09 435.675 MHz FM
RS-15 22 Jul 20:40:38 20:50:35 37° 8° (N) 21:00:40 29.354 - 29.394 USB, Beacon 29.352 USB
STRAND 1 22 Jul 20:48:56 20:54:04 72° 288° (WNW) 20:59:08 ?
JAS-2 22 Jul 20:57:33 21:02:22 17° 277° (W) 21:07:05 435.800 - 435.900 CW/SSB, 435.910 FM
SO-67 22 Jul 20:57:36 20:59:27 14° 270° (W) 21:01:18 435.3500 MHz FM
Oscar 11 22 Jul 21:27:40 21:31:26 30° 66° (ENE) 21:35:13 145.825 FM, Beacon 2401.500 USB
FUNcube-1 22 Jul 21:31:17 21:33:44 15° 59° (ENE) 21:36:10 145.950 - 145.970 MHz USB
UOSAT-12 22 Jul 21:32:13 21:34:29 13° 1° (N) 21:36:45 437.025 FM, 437.400 FM
SO-50 22 Jul 22:13:40 22:18:02 36° 38° (NE) 22:22:27 436.795 FM
HO-68 22 Jul 22:25:23 22:32:09 43° 262° (W) 22:38:57 435.675 MHz FM
STRAND 1 22 Jul 22:29:54 22:32:23 14° 308° (NW) 22:34:53 ?
RS-15 22 Jul 22:54:33 23:05:27 63° 39° (NE) 23:16:38 29.354 - 29.394 USB, Beacon 29.352 USB
MaSat-1 22 Jul 23:03:24 23:06:39 24° 105° (ESE) 23:10:19 437.345 MHz
Oscar 11 22 Jul 23:03:42 23:07:35 33° 264° (W) 23:11:30 145.825 FM, Beacon 2401.500 USB
FUNcube-1 22 Jul 23:05:14 23:09:38 78° 257° (WSW) 23:13:56 145.950 - 145.970 MHz USB
UOSAT-12 22 Jul 23:12:48 23:16:23 21° 25° (NNE) 23:19:58 437.025 FM, 437.400 FM
AO-40 22 Jul 23:53:18 04:57:56 29° 183° (S) 09:55:17 Beacon 2401.320
SO-50 22 Jul 23:54:12 23:58:44 47° 238° (WSW) 00:03:20 436.795 FM
MaSat-1 23 Jul 00:39:37 00:43:39 48° 309° (NW) 00:48:21 437.345 MHz
UOSAT-12 23 Jul 00:52:37 00:57:22 69° 47° (NE) 01:02:04 437.025 FM, 437.400 FM
RS-15 23 Jul 01:07:16 01:17:43 52° 245° (WSW) 01:28:31 29.354 - 29.394 USB, Beacon 29.352 USB
Oscar 19 23 Jul 01:41:35 01:43:42 12° 85° (E) 01:45:49 437.125 CW, 437.150 USB
PCSat 23 Jul 01:41:53 01:43:55 12° 102° (ESE) 01:45:57 145.825 MHz
Lituanica SAT-1 23 Jul 02:01:42 02:03:38 27° 150° (SSE) 02:05:35 437.275 MHz beacon
Oscar 16 23 Jul 02:07:22 02:11:20 22° 91° (E) 02:15:17 437.025 USB, Beacon 2401.1428
ITAMSAT 1 23 Jul 02:15:48 02:17:42 12° 85° (E) 02:19:36 435.822 SSB
MaSat-1 23 Jul 02:19:59 02:22:20 14° 332° (NNW) 02:24:49 437.345 MHz
JAS-1B 23 Jul 02:22:01 02:28:10 18° 77° (ENE) 02:33:56 435.800 - 435.900 CW/SSB
AO-27 23 Jul 02:32:02 02:35:25 17° 89° (E) 02:38:47 436.795 MHz FM
UOSAT-12 23 Jul 02:33:34 02:37:05 21° 247° (WSW) 02:40:34 437.025 FM, 437.400 FM
Uribyol 2 23 Jul 02:35:39 02:39:18 19° 90° (E) 02:42:55 436.500 FM
OPAL 23 Jul 02:41:41 02:44:43 17° 52° (NE) 02:47:45 ?
ISS 23 Jul 02:45:11 02:47:44 20° 141° (SE) 02:50:18 145.800 FM
Sapphire 23 Jul 02:47:25 02:52:21 38° 114° (ESE) 02:57:19 437.095 MHz 1200 baud AX-25 AFSK
AO-Echo 23 Jul 02:49:19 02:53:33 25° 91° (E) 02:57:40 ?
Oscar 19 23 Jul 03:18:42 03:23:53 81° 104° (ESE) 03:29:04 437.125 CW, 437.150 USB
PCSat 23 Jul 03:20:58 03:26:21 70° 121° (ESE) 03:31:46 145.825 MHz
RS-15 23 Jul 03:24:14 03:27:13 11° 268° (W) 03:30:13 29.354 - 29.394 USB, Beacon 29.352 USB
Lituanica SAT-1 23 Jul 03:34:18 03:36:28 58° 350° (N) 03:38:39 437.275 MHz beacon
TMSAT-1 23 Jul 03:35:57 03:39:51 20° 90° (E) 03:43:43 436.925 FM
Oscar 16 23 Jul 03:46:01 03:51:06 60° 290° (WNW) 03:56:10 437.025 USB, Beacon 2401.1428
ITAMSAT 1 23 Jul 03:52:52 03:58:06 77° 104° (ESE) 04:03:16 435.822 SSB
Gurwin Techsat 1B 23 Jul 03:55:20 04:00:17 38° 97° (E) 04:05:13 435.225 FM
AO-7 23 Jul 04:06:32 04:10:31 14° 82° (E) 04:14:28 29.400 - 29.500 MHz
AO-27 23 Jul 04:10:20 04:15:34 77° 288° (WNW) 04:20:44 436.795 MHz FM
JAS-1B 23 Jul 04:10:49 04:20:40 68° 101° (E) 04:29:24 435.800 - 435.900 CW/SSB
Uribyol 2 23 Jul 04:14:08 04:19:18 69° 289° (WNW) 04:24:25 436.500 FM
OPAL 23 Jul 04:17:59 04:22:56 89° 71° (ENE) 04:27:56 ?
ISS 23 Jul 04:20:45 04:24:07 81° 160° (SSE) 04:27:30 145.800 FM
AO-Echo 23 Jul 04:27:34 04:32:39 53° 291° (WNW) 04:37:34 ?
Sapphire 23 Jul 04:30:31 04:35:43 46° 315° (NW) 04:40:57 437.095 MHz 1200 baud AX-25 AFSK
Uosat F 23 Jul 04:40:56 04:44:21 18° 90° (E) 04:47:45 435.120 FM
Oscar 19 23 Jul 04:59:09 05:02:39 19° 304° (WNW) 05:06:09 437.125 CW, 437.150 USB
PCSat 23 Jul 05:05:32 05:10:15 29° 323° (NW) 05:15:00 145.825 MHz
Lituanica SAT-1 23 Jul 05:07:24 05:09:33 50° 8° (N) 05:11:43 437.275 MHz beacon
TMSAT-1 23 Jul 05:15:00 05:20:17 67° 289° (WNW) 05:25:31 436.925 FM
Oscar 16 23 Jul 05:27:42 05:29:28 12° 310° (NW) 05:31:13 437.025 USB, Beacon 2401.1428
ITAMSAT 1 23 Jul 05:33:23 05:37:02 20° 304° (WNW) 05:40:40 435.822 SSB
Gurwin Techsat 1B 23 Jul 05:35:24 05:40:15 37° 296° (WNW) 05:45:04 435.225 FM
MaSat-1 23 Jul 05:40:38 05:41:57 11° 22° (NNE) 05:43:17 437.345 MHz
AO-27 23 Jul 05:51:27 05:54:15 15° 308° (NW) 05:57:04 436.795 MHz FM
Uribyol 2 23 Jul 05:55:29 05:57:53 13° 309° (NW) 06:00:17 436.500 FM
AO-7 23 Jul 05:56:47 06:05:05 63° 104° (ESE) 06:13:18 29.400 - 29.500 MHz
ISS 23 Jul 05:57:40 06:01:00 58° 359° (N) 06:04:20 145.800 FM
OPAL 23 Jul 06:00:02 06:02:32 14° 270° (W) 06:05:03 ?
JAS-1B 23 Jul 06:01:40 06:10:36 41° 304° (NW) 06:18:48 435.800 - 435.900 CW/SSB
AO-Echo 23 Jul 06:09:16 06:10:16 11° 312° (NW) 06:11:17 ?
JAS-2 23 Jul 06:16:34 06:19:37 14° 80° (E) 06:22:30 435.800 - 435.900 CW/SSB, 435.910 FM
Sapphire 23 Jul 06:17:06 06:20:32 17° 338° (NNW) 06:23:58 437.095 MHz 1200 baud AX-25 AFSK
Uosat F 23 Jul 06:18:39 06:23:41 71° 289° (WNW) 06:28:40 435.120 FM
STRAND 1 23 Jul 06:30:34 06:35:22 41° 66° (ENE) 06:40:11 ?
Hamsat 23 Jul 06:33:19 06:36:17 18° 90° (E) 06:39:14 145.90 MHz
Lituanica SAT-1 23 Jul 06:40:21 06:42:27 39° 206° (SSW) 06:44:33 437.275 MHz beacon
KITSAT 1 23 Jul 06:44:33 06:49:08 16° 99° (E) 06:53:43 435.175 FM
PCSat 23 Jul 06:52:52 06:55:31 14° 348° (NNW) 06:58:10 145.825 MHz
TMSAT-1 23 Jul 06:56:49 06:59:16 13° 309° (NW) 07:01:42 436.925 FM
MaSat-1 23 Jul 07:16:25 07:21:02 30° 44° (NE) 07:25:40 437.345 MHz
Oscar 10/S400 23 Jul 07:17:55 08:26:36 26° 244° (WSW) 11:28:38 145.825 - 145.975 CW/USB, Beacon 145.810 USB
ISS 23 Jul 07:34:30 07:37:53 84° 200° (SSW) 07:41:16 145.800 FM
AO-7 23 Jul 07:50:00 07:57:33 40° 306° (NW) 08:05:04 29.400 - 29.500 MHz
JAS-1B 23 Jul 07:53:24 07:58:26 16° 328° (NNW) 08:03:20 435.800 - 435.900 CW/SSB
Uosat F 23 Jul 07:59:18 08:01:36 13° 308° (NW) 08:03:55 435.120 FM
JAS-2 23 Jul 07:59:31 08:06:05 77° 103° (ESE) 08:11:49 435.800 - 435.900 CW/SSB, 435.910 FM
Sapphire 23 Jul 08:04:03 08:06:19 12° 5° (N) 08:08:35 437.095 MHz 1200 baud AX-25 AFSK
Hamsat 23 Jul 08:08:25 08:12:35 54° 288° (WNW) 08:16:46 145.90 MHz
STRAND 1 23 Jul 08:10:02 08:14:39 33° 265° (W) 08:19:17 ?
SO-67 23 Jul 08:15:30 08:18:41 31° 96° (E) 08:21:49 435.3500 MHz FM
KITSAT 1 23 Jul 08:35:03 08:43:04 68° 121° (ESE) 08:51:06 435.175 FM
PCSat 23 Jul 08:38:29 08:41:22 14° 15° (NNE) 08:44:14 145.825 MHz
MaSat-1 23 Jul 08:53:33 08:58:50 64° 244° (WSW) 09:04:00 437.345 MHz
ISS 23 Jul 09:11:38 09:14:18 22° 218° (SW) 09:16:56 145.800 FM
Saudisat 1A 23 Jul 09:12:33 09:15:14 16° 112° (ESE) 09:17:56 436.775 MHz
AO-7 23 Jul 09:44:21 09:48:07 14° 330° (NNW) 09:51:52 29.400 - 29.500 MHz
JAS-2 23 Jul 09:45:22 09:50:25 24° 307° (NW) 09:55:02 435.800 - 435.900 CW/SSB, 435.910 FM
Sapphire 23 Jul 09:47:35 09:51:51 23° 31° (NNE) 09:56:06 437.095 MHz 1200 baud AX-25 AFSK
HO-68 23 Jul 09:47:56 09:54:11 31° 94° (E) 10:00:22 435.675 MHz FM
SO-67 23 Jul 09:48:56 09:51:36 21° 294° (WNW) 09:54:16 435.3500 MHz FM
PCSat 23 Jul 10:21:34 10:26:30 33° 40° (NE) 10:31:24 145.825 MHz
KITSAT 1 23 Jul 10:31:20 10:38:59 43° 325° (NW) 10:46:40 435.175 FM
MaSat-1 23 Jul 10:33:51 10:35:13 11° 263° (W) 10:36:34 437.345 MHz
Oscar 11 23 Jul 10:46:36 10:50:32 32° 96° (E) 10:54:26 145.825 FM, Beacon 2401.500 USB
Saudisat 1A 23 Jul 10:49:50 10:54:16 81° 311° (NW) 10:58:43 436.775 MHz
FUNcube-1 23 Jul 10:51:25 10:53:43 14° 89° (E) 10:56:01 145.950 - 145.970 MHz USB
JAS-1B 23 Jul 11:28:46 11:30:48 11° 21° (NNE) 11:32:51 435.800 - 435.900 CW/SSB
Sapphire 23 Jul 11:30:40 11:36:08 79° 53° (NE) 11:41:34 437.095 MHz 1200 baud AX-25 AFSK
HO-68 23 Jul 11:35:18 11:42:21 63° 294° (WNW) 11:49:22 435.675 MHz FM
PCSat 23 Jul 12:04:54 12:10:14 58° 241° (WSW) 12:15:32 145.825 MHz
Oscar 11 23 Jul 12:22:53 12:26:41 31° 294° (WNW) 12:30:29 145.825 FM, Beacon 2401.500 USB
FUNcube-1 23 Jul 12:26:27 12:30:36 65° 287° (WNW) 12:34:43 145.950 - 145.970 MHz USB
KITSAT 1 23 Jul 12:30:14 12:36:43 25° 353° (N) 12:43:11 435.175 FM
Saudisat 1A 23 Jul 12:31:08 12:34:31 21° 332° (NNW) 12:37:55 436.775 MHz
AO-Echo 23 Jul 12:32:43 12:33:22 10° 48° (NE) 12:34:02 ?
Oscar 19 23 Jul 13:01:49 13:06:10 29° 62° (ENE) 13:10:33 437.125 CW, 437.150 USB
JAS-1B 23 Jul 13:10:46 13:17:56 27° 46° (NE) 13:25:33 435.800 - 435.900 CW/SSB
Sapphire 23 Jul 13:15:08 13:18:57 20° 253° (WSW) 13:22:45 437.095 MHz 1200 baud AX-25 AFSK
AO-7 23 Jul 13:23:10 13:26:11 12° 26° (NNE) 13:29:12 29.400 - 29.500 MHz
HO-68 23 Jul 13:24:22 13:28:47 18° 316° (NW) 13:33:11 435.675 MHz FM
Oscar 16 23 Jul 13:28:23 13:33:17 48° 68° (ENE) 13:38:13 437.025 USB, Beacon 2401.1428
RS-15 23 Jul 13:28:48 13:35:28 18° 97° (E) 13:42:02 29.354 - 29.394 USB, Beacon 29.352 USB
ITAMSAT 1 23 Jul 13:36:53 13:41:22 30° 62° (ENE) 13:45:52 435.822 SSB
Gurwin Techsat 1B 23 Jul 13:43:30 13:46:50 17° 54° (NE) 13:50:10 435.225 FM
AO-27 23 Jul 13:53:57 13:58:49 41° 65° (ENE) 14:03:41 436.795 MHz FM
Uribyol 2 23 Jul 13:57:24 14:02:19 44° 66° (ENE) 14:07:15 436.500 FM
AO-Echo 23 Jul 14:05:52 14:10:57 50° 68° (ENE) 14:16:06 ?
Saudisat 1A 23 Jul 14:14:05 14:15:45 12° 356° (N) 14:17:25 436.775 MHz
SO-50 23 Jul 14:14:15 14:17:31 20° 113° (ESE) 14:20:50 436.795 FM
KITSAT 1 23 Jul 14:27:54 14:34:55 31° 22° (NNE) 14:41:54 435.175 FM
Oscar 19 23 Jul 14:40:25 14:45:20 47° 261° (W) 14:50:17 437.125 CW, 437.150 USB
JAS-1B 23 Jul 14:58:11 15:06:55 77° 69° (ENE) 15:16:46 435.800 - 435.900 CW/SSB
TMSAT-1 23 Jul 15:00:41 15:05:44 47° 67° (ENE) 15:10:49 436.925 FM
Oscar 16 23 Jul 15:08:34 15:12:53 27° 267° (W) 15:17:14 437.025 USB, Beacon 2401.1428
AO-7 23 Jul 15:09:16 15:16:31 35° 51° (NE) 15:23:47 29.400 - 29.500 MHz
ITAMSAT 1 23 Jul 15:15:40 15:20:41 47° 261° (W) 15:25:45 435.822 SSB
Gurwin Techsat 1B 23 Jul 15:20:46 15:26:05 87° 74° (ENE) 15:31:27 435.225 FM
AO-27 23 Jul 15:33:42 15:38:25 34° 264° (W) 15:43:09 436.795 MHz FM
RS-15 23 Jul 15:34:41 15:45:37 69° 121° (ESE) 15:56:24 29.354 - 29.394 USB, Beacon 29.352 USB
Uribyol 2 23 Jul 15:37:24 15:41:57 30° 265° (W) 15:46:32 436.500 FM
AO-Echo 23 Jul 15:45:26 15:49:57 28° 267° (W) 15:54:32 ?
SO-50 23 Jul 15:53:09 15:57:38 67° 313° (NW) 16:02:14 436.795 FM
Saudisat 1A 23 Jul 15:54:17 15:57:08 16° 21° (NNE) 15:59:57 436.775 MHz
